Location: Arborea
(39.7744°N, 8.5819°E)
Time: 03:44:00
(UTC+00:00)

Lacrosse 4 Rocket - Pass Details

Date: 24 October 2021
Orbit: 538 x 619 km, 68.0° (Epoch: 27 November)

Event Time Altitude Azimuth Distance (km) Brightness Sun altitude
Rises 17:28:47 0° 340° (NNW) 2,817 5.1 -11.3°
Reaches altitude 10° 17:31:08 10° 349° (N) 1,927 4.2 -11.7°
Maximum altitude 17:35:10 37° 57° (ENE) 945 2.1 -12.5°
Enters shadow 17:38:33 14° 121° (ESE) 1,702 3.3 -13.1°
